[[{"header":{"parameterUnit":"m.s-1","parameterCategory":1,"la1":30.2992,"la2":30.254,"lo1":-89.0895,"lo2":-89.0443,"dy":0.0025,"dx":0.0025,"nx":19,"ny":19,"refTime":"2026-04-15T03:00:00:Z","depth":0,"parameterNumber":2,"parameterNumberName":"U-component_of_WINDS"},"data":[0,0,0,-0.4069,-0.4067,-0.3973,-0.3972,-0.386,-0.3859,0,0,0,0,0,0,0,0,0,0,0,-0.4103,-0.4102,-0.4069,-0.4067,-0.3973,-0.3972,-0.386,-0.3859,0,0,0,0,0,0,0,0,0,0,0,-0.4103,-0.4102,-0.4102,-0.4066,-0.3973,-0.3972,-0.3861,-0.3928,0,0,0,0,0,0,0,0,0,0,-0.4018,-0.4056,-0.4102,-0.4102,-0.4066,-0.3973,-0.3972,-0.3931,-0.3924,-0.3907,0,-0.3894,0,-0.3875,-0.3852,-0.3852,0,0,0,-0.4062,-0.4062,-0.4031,-0.4101,-0.4065,-0.3973,-0.4014,-0.3927,-0.3919,-0.3897,-0.3892,-0.3888,-0.3873,-0.3852,-0.3851,-0.377,-0.377,0,0,-0.4067,-0.4089,-0.4037,-0.4026,-0.4043,-0.4017,-0.4011,-0.3922,-0.3918,-0.3892,-0.3885,-0.3871,-0.3851,-0.385,-0.3771,-0.377,0,0,0,-0.4085,-0.4093,-0.4064,-0.4031,-0.4014,-0.4014,-0.4007,-0.3922,-0.3911,-0.3884,-0.387,-0.3851,-0.3849,-0.3771,-0.3771,-0.3785,0,0,0,-0.4088,-0.4103,-0.4066,-0.4079,-0.4016,-0.3967,-0.4009,-0.3917,-0.3906,-0.3871,-0.385,-0.3848,-0.3771,-0.3771,-0.3785,-0.3788,0,0,0,-0.4107,-0.4105,-0.4094,-0.408,-0.4041,-0.3968,-0.3951,-0.3914,-0.3898,-0.3852,-0.3848,-0.3771,-0.3771,-0.3785,-0.3787,-0.3772,0,0,0,-0.4133,-0.4108,-0.4095,-0.4061,-0.4042,-0.3978,-0.3952,-0.3903,-0.3865,-0.385,-0.3771,-0.3771,-0.3785,-0.3787,-0.3773,-0.3764,-0.3762,0,0,-0.4113,-0.4106,-0.4085,-0.407,-0.4015,-0.399,-0.3936,-0.388,-0.3855,-0.38,-0.3798,-0.3785,-0.3787,-0.3772,-0.3747,-0.3746,0,0,0,-0.4086,-0.4071,-0.4051,-0.4017,-0.3975,-0.3938,-0.3889,-0.3868,-0.382,-0.3832,-0.3775,-0.3776,-0.3766,-0.3761,-0.376,-0.375,-0.3769,-0.3769,-0.3769,-0.4089,-0.406,-0.4022,-0.3981,-0.3948,-0.3898,-0.3868,-0.3831,-0.381,-0.3797,-0.378,-0.3769,-0.3764,-0.3763,-0.3753,-0.3774,-0.3774,-0.3774,-0.3774,-0.4057,-0.4031,-0.4005,-0.3959,-0.3927,-0.3888,-0.3838,-0.3825,-0.3783,-0.3779,-0.3769,-0.3767,-0.3763,-0.3752,-0.3775,-0.3775,-0.3775,-0.3774,-0.3774,-0.4056,-0.4038,-0.4014,-0.3962,-0.3925,-0.3884,-0.3845,-0.3817,-0.3791,-0.3781,-0.376,-0.376,-0.3755,-0.3773,-0.3773,-0.3773,-0.3773,-0.3773,-0.3773,-0.4063,-0.4036,-0.4007,-0.3961,-0.3935,-0.3898,-0.3847,-0.3821,-0.3784,-0.3767,-0.3767,-0.3747,-0.3768,-0.3774,-0.3772,-0.3772,-0.3773,-0.3773,-0.3773,-0.4041,-0.4042,-0.3998,-0.3972,-0.3915,-0.388,-0.3845,-0.3794,-0.3768,-0.375,-0.3732,-0.3753,-0.3743,-0.3743,-0.3748,-0.3739,-0.3739,-0.3739,-0.3739,-0.404,-0.4032,-0.3981,-0.3942,-0.39,-0.3865,-0.3815,-0.3775,-0.3734,-0.3716,-0.3713,-0.3717,-0.3719,-0.3707,-0.3709,-0.3712,-0.3695,-0.3695,-0.3695,-0.4024,-0.4012,-0.3975,-0.3935,-0.3889,-0.3849,-0.38,-0.3756,-0.3709,-0.3692,-0.3701,-0.3703,-0.3708,-0.3712,-0.3695,-0.3698,-0.3704,0,0]},{"header":{"parameterUnit":"m.s-1","parameterCategory":1,"la1":30.2992,"la2":30.254,"lo1":-89.0895,"lo2":-89.0443,"dy":0.0025,"dx":0.0025,"nx":19,"ny":19,"refTime":"2026-04-15T03:00:00:Z","depth":0,"parameterNumber":3,"parameterNumberName":"V-component_of_WINDS"},"data":[0,0,0,3.4912,3.4914,3.5005,3.5005,3.5125,3.5126,0,0,0,0,0,0,0,0,0,0,0,3.489,3.4891,3.4912,3.4914,3.5004,3.5005,3.5125,3.5126,0,0,0,0,0,0,0,0,0,0,0,3.4889,3.4891,3.4892,3.4915,3.5004,3.5005,3.5125,3.5054,0,0,0,0,0,0,0,0,0,0,3.4965,3.495,3.489,3.4892,3.4915,3.5004,3.5005,3.5051,3.5059,3.5087,0,3.5115,0,3.5123,3.5135,3.5135,0,0,0,3.491,3.4943,3.4964,3.4892,3.4916,3.5004,3.4963,3.5055,3.5064,3.5097,3.5116,3.5121,3.5125,3.5136,3.5136,3.5317,3.5318,0,0,3.4905,3.4908,3.4958,3.497,3.4959,3.496,3.4965,3.506,3.5081,3.5117,3.5123,3.5127,3.5136,3.5137,3.5316,3.5317,0,0,0,3.4893,3.4905,3.4923,3.4965,3.4981,3.4962,3.4969,3.5076,3.5082,3.5125,3.5128,3.5137,3.5139,3.5315,3.5317,3.5372,0,0,0,3.489,3.4898,3.4921,3.4923,3.498,3.503,3.4983,3.5075,3.5086,3.5127,3.5137,3.514,3.5314,3.5316,3.5368,3.5398,0,0,0,3.4882,3.4897,3.4912,3.4923,3.4963,3.5029,3.504,3.5078,3.5089,3.5135,3.514,3.5313,3.5315,3.5365,3.5392,3.5447,0,0,0,3.4874,3.4958,3.4913,3.5008,3.4962,3.5063,3.5039,3.5114,3.516,3.5138,3.5314,3.5316,3.5364,3.5388,3.5444,3.5495,3.5517,0,0,3.4982,3.4971,3.5028,3.4989,3.51,3.5049,3.5167,3.5205,3.5206,3.5279,3.5284,3.537,3.5392,3.5447,3.5636,3.5653,0,0,0,3.5063,3.5103,3.5132,3.5178,3.5211,3.5242,3.5262,3.5277,3.534,3.5245,3.5404,3.5417,3.5449,3.5473,3.5488,3.5516,3.5328,3.5327,3.5327,3.522,3.5218,3.5311,3.532,3.5365,3.5386,3.5422,3.5445,3.5427,3.5465,3.5487,3.5603,3.5632,3.5643,3.5671,3.5514,3.5514,3.5514,3.5514,3.5379,3.5436,3.5414,3.5496,3.5493,3.5561,3.5585,3.5571,3.5633,3.5586,3.5614,3.5563,3.5662,3.5687,3.5518,3.5518,3.5517,3.5517,3.5516,3.5482,3.5509,3.5527,3.5594,3.5645,3.5651,3.5713,3.5707,3.5701,3.5729,3.5752,3.5751,3.575,3.574,3.5741,3.5741,3.5742,3.5742,3.5742,3.5582,3.56,3.5654,3.5698,3.5727,3.5765,3.5787,3.5815,3.5845,3.5836,3.5836,3.5816,3.5672,3.5636,3.5748,3.5747,3.5746,3.5746,3.5745,3.5745,3.5708,3.5791,3.5821,3.5872,3.5924,3.5916,3.5974,3.5996,3.6026,3.6,3.5895,3.5883,3.5871,3.5842,3.6,3.6,3.6,3.6,3.5833,3.5827,3.5911,3.5959,3.6005,3.6007,3.61,3.6119,3.6132,3.6145,3.6121,3.6081,3.607,3.6065,3.6049,3.6021,3.6222,3.6222,3.6222,3.5933,3.5931,3.6013,3.6027,3.6067,3.61,3.6188,3.6243,3.6249,3.6231,3.6156,3.6146,3.6082,3.6061,3.6042,3.6017,3.5966,0,0]}]]